Regional Weather Roundup
Issued by NWS

Home | Current Version | Previous Version | Graphics & Text | Print | Product List | Glossary On
Versions: 1 2 3 4 5 6 7 8 9 10 11 12 13 14 15 16 17 18 19 20 21 22 23 24 25 26 27 28 29 30 31 32 33 34 35 36 37 38 39 40 41 42 43 44 45 46 47 48 49 50
000
ASUS45 KABQ 182001
RWRNM
NEW MEXICO REGIONAL WEATHER ROUNDUP
NATIONAL WEATHER SERVICE ALBUQUERQUE NM
100 PM MST SUN FEB 18 2018

NOTE: "FAIR" MEANS FEW OR NO CLOUDS BELOW 12,000 FEET AGL WITH NO
       SIGNIFICANT WEATHER OR OBSTRUCTIONS TO VISION.

      THIS PRODUCT IS RELEASED AS TWO VERSIONS.  ONE VERSION NEAR
      THE TOP OF THE HOUR CONTAINING PRELIMINARY DATA FROM ALBUQUERQUE
      AND OTHER STATIONS.  A FINAL VERSION WITH ADDITIONAL DATA IS
      ISSUED ABOUT 10 MINUTES AFTER THE HOUR.

NMZ501-503-504-510>518-182100-
NORTHWEST PLATEAU/NORTHCENTRAL MOUNTAINS

CITY           SKY/WX    TMP DP  RH WIND       PRES   REMARKS
FARMINGTON     FAIR      54  25  32 VRB6      29.84F
LOS ALAMOS     FAIR      54  16  22 SW15G23   29.89F
SANTA FE       FAIR      53  30  41 W18G28    29.88F
TAOS           FAIR      51  24  34 W22G29    29.86F
ANGEL FIRE     FAIR      41  21  44 W31G46    29.81F

$$
NMZ402-403-502-505>509-182100-
WESTCENTRAL MOUNTAINS/SOUTHWEST MOUNTAINS

CITY           SKY/WX    TMP DP  RH WIND       PRES   REMARKS
GALLUP         FAIR      53  31  42 SW17G30   29.90F
GRANTS         FAIR      58  21  23 SW22G31   29.91F
SILVER CITY    CLOUDY    59  43  56 W16       29.99F

$$
NMZ407-409-411-412-182100-
SOUTHERN DESERTS

CITY           SKY/WX    TMP DP  RH WIND       PRES   REMARKS
DEMING         PTSUNNY   63  48  58 W15       29.95F
LAS CRUCES     PTSUNNY   65  47  50 SW18G24   29.97F
ALAMOGORDO     FAIR      64  45  48 S6        29.95F
T OR C         FAIR      63  47  55 S14       29.91F

$$
NMZ519>523-182100-
CENTRAL VALLEYS/CENTRAL HIGHLANDS

CITY           SKY/WX    TMP DP  RH WIND       PRES   REMARKS
ALBUQUERQUE    PTSUNNY   60  38  43 S14G21    29.88F
MORIARTY ARPT  FAIR      61  33  33 W25G31    29.89F
CLINES CORNERS FAIR      56  28  34 W32G45    29.88F
BELEN          PTSUNNY   60  37  42 S14       29.87F
SOCORRO        FAIR      60  44  54 S14G20    29.89F

$$
NMZ524>526-539-540-182100-
SOUTHCENTRAL MOUNTAINS

CITY           SKY/WX    TMP DP  RH WIND       PRES   REMARKS
RUIDOSO        NOT AVBL

$$
NMZ527>531-182100-
NORTHEAST HIGHLANDS/NORTHEAST PLAINS

CITY           SKY/WX    TMP DP  RH WIND       PRES   REMARKS
LAS VEGAS      FAIR      58  11  15 SW32G38   29.79F
RATON          FAIR      57   9  14 SW33G51   29.66F
CLAYTON        FAIR      66  26  22 SW20G32   29.66F

$$
NMZ532>537-182100-
EASTCENTRAL PLAINS

CITY           SKY/WX    TMP DP  RH WIND       PRES   REMARKS
SANTA ROSA     FAIR      66  33  29 SW24G35   29.79F
TUCUMCARI      FAIR      73  30  20 W29G39    29.72F
CANNON AFB     FAIR      65  42  43 SW31      29.82F
CLOVIS AIRPORT NOT AVBL

$$
NMZ028-029-538-182100-
SOUTHEAST PLAINS

CITY           SKY/WX    TMP DP  RH WIND       PRES   REMARKS
ROSWELL        FAIR      73  45  36 S15G22    29.81F
ARTESIA        FAIR      72  46  40 SW33G41   29.84F
CARLSBAD       PTSUNNY   72  48  42 VRB3      29.86F
HOBBS          SUNNY     73  43  33 SW21G31   29.88F


$$




USA.gov is the U.S. government's official web portal to all federal, state and local government web resources and services.